This is the latest recevied weather packets stored in our database for station/object N4HAC. If no packets are shown the sender has not sent any weather packets the latest 10 day(s).
| Time | Temp. | Humidity | Pressure | Rain* | Wind** | Luminosity | Snow |
|---|---|---|---|---|---|---|---|
| 1777206141 | 7.22° C | 96% | 1013 hPa | 0 mm | - | 78 W/m² | - |
| 1777205838 | 6.67° C | 96% | 1012.7 hPa | 0 mm | - | 69 W/m² | - |
| 1777205534 | 6.67° C | 96% | 1012.8 hPa | 0 mm | - | 47 W/m² | - |
| 1777205231 | 6.67° C | 96% | 1012.6 hPa | 0 mm | - | 44 W/m² | - |
| 1777204928 | 6.67° C | 96% | 1012.5 hPa | 0 mm | - | 51 W/m² | - |
| 1777204622 | 6.67° C | 96% | 1012.4 hPa | 0 mm | - | 47 W/m² | - |
| 1777204318 | 6.67° C | 97% | 1012.3 hPa | 0 mm | - | 34 W/m² | - |
| 1777204015 | 6.67° C | 97% | 1012.4 hPa | 0 mm | - | 30 W/m² | - |
| 1777203715 | 6.67° C | 97% | 1012.2 hPa | 0 mm | - | 21 W/m² | - |
| 1777203410 | 6.67° C | 97% | 1012.2 hPa | 0 mm | - | 18 W/m² | - |
| 1777203107 | 6.67° C | 97% | 1012 hPa | 0 mm | - | 19 W/m² | - |
| 1777202804 | 6.67° C | 97% | 1011.7 hPa | 0 mm | - | 19 W/m² | - |
| 1777202503 | 6.67° C | 97% | 1012.1 hPa | 0 mm | - | 15 W/m² | - |
| 1777202202 | 6.67° C | 97% | 1012 hPa | 0 mm | - | 11 W/m² | - |
| 1777201898 | 6.67° C | 97% | 1011.7 hPa | 0 mm | - | 9 W/m² | - |
| 1777201596 | 6.67° C | 97% | 1011.8 hPa | 0 mm | - | 8 W/m² | - |
| 1777201292 | 6.67° C | 96% | 1011.5 hPa | 0 mm | - | 8 W/m² | - |
| 1777200986 | 6.67° C | 96% | 1011.6 hPa | 0 mm | - | 6 W/m² | - |
| 1777200684 | 6.67° C | 97% | 1011.6 hPa | 0 mm | - | 6 W/m² | - |
| 1777200382 | 6.67° C | 97% | 1011.6 hPa | 0 mm | - | 5 W/m² | - |
| 1777200080 | 6.67° C | 98% | 1011.6 hPa | 0 mm | - | 3 W/m² | - |
| 1777199775 | 6.67° C | 98% | 1011.4 hPa | 0 mm | - | 2 W/m² | - |
| 1777199471 | 7.22° C | 97% | 1011.5 hPa | 0 mm | - | 1 W/m² | - |
| 1777199166 | 7.22° C | 97% | 1011.2 hPa | 0 mm | - | 1 W/m² | - |
| 1777198860 | 7.22° C | 97% | 1011.2 hPa | 0 mm | - | 1 W/m² | - |
* Rain latest hour (hover to see other rain measurements)
** Current wind speed in m/s (hover to see current wind gust speed)